AirNav   TITAN Aviation Fuels
 
 1065 users online  

2GA5 Windrift Aerodrome
Concord, Georgia, USA

GOING TO CONCORD?


FAA INFORMATION EFFECTIVE 20 MAY 2021

Location

FAA Identifier: 2GA5
Lat/Long: 33-02-30.4560N 084-25-55.7200W
33-02.507600N 084-25.928667W
33.0417933,-84.4321444
(estimated)
Elevation: 780 ft. / 238 m (estimated)
Variation: 02W (1985)
From city: 3 miles N of CONCORD, GA
Time zone: UTC -4 (UTC -5 during Standard Time)
Zip code: 30258

Airport Operations

Airport use: Private use. Permission required prior to landing
Activation date: 04/1990
Control tower: no
ARTCC: ATLANTA CENTER
FSS: MACON FLIGHT SERVICE STATION
Attendance: CONTINUOUS
Wind indicator: yes
Segmented circle: no

Airport Communications

WX AWOS-3 at OPN (10 nm SE): 133.975 (706-646-4123)
WX AWOS-3 at 6A2 (14 nm NE): 119.750 (770-227-3934)

Nearby radio navigation aids

VOR radial/distance  VOR name  Freq  Var
ATLr185/35.2ATLANTA VORTAC116.9005W
LGCr090/38.9LAGRANGE VORTAC115.6001E
CSGr048/39.1COLUMBUS VORTAC117.1001E

 
NDB name  Hdg/Dist  Freq  Var  ID
YATES304/14.433903WOP --- .--.
PECAT175/15.831605WFFC ..-. ..-. -.-.
COWETA COUNTY135/19.123403WEQQ . --.- --.-
PINE MOUNTAIN065/25.227203WPIM .--. .. --

Airport Services

Runway Information

Runway 17/35

Dimensions: 3200 x 80 ft. / 975 x 24 m
Surface: turf
RUNWAY 17  RUNWAY 35
Traffic pattern: leftleft

Airport Ownership and Management from official FAA records

Ownership: Privately-owned
Owner: JOY S. WALKER
400 COLLIER ROAD
CONCORD, GA 30206
Phone (770) 584-2745
Manager: Phone 770-884-5951

Airport Operational Statistics

Aircraft based on the field: 5
Single engine airplanes: 3
Multi engine airplanes: 1
Gliders airplanes: 1
    

Additional Remarks

FOR CD CTC ATLANTA APCH AT 678-364-6131.

Instrument Procedures

There are no published instrument procedures at 2GA5.

Some nearby airports with instrument procedures:

KOPN - Thomaston-Upson County Airport (10 nm SE)
6A2 - Griffin-Spalding County Airport (14 nm NE)
KFFC - Atlanta Regional Airport-Falcon Field (20 nm N)
KHMP - Atlanta Speedway Airport (21 nm N)
KCCO - Newnan Coweta County Airport (23 nm NW)
 
Loc | Ops | Rwys | IFR | FBO | Links
Com | Nav | Svcs | Stats | Notes
Area around 2GA5 (Windrift Aerodrome)
 
Road maps at: MapQuest Bing Google
 
Aerial photo
No photo
 
Sectional chart

 
Airport distance calculator
Flying to Windrift Aerodrome? Find the distance to fly.

From to 2GA5

Sunrise and sunset
Times for 15-Jun-2021
 Local
(UTC-4)
 Zulu
(UTC)
Morning civil twilight06:0110:01
Sunrise06:2910:29
Sunset20:4700:47
Evening civil twilight21:1601:16

Current date and time
Zulu (UTC)  16-Jun-2021 00:55:57
Local (UTC-4)  15-Jun-2021 20:55:57
 
METAR
KOPN 
10nm SE 
160035Z AUTO 35003KT 10SM CLR 27/13 A2993 RMK AO2 LTG DSNT E
K6A2 
14nm NE 
160035Z AUTO 00000KT 10SM CLR 27/10 A2994 RMK AO2
KFFC 
20nm N 
152353Z AUTO 31009KT 10SM CLR 29/13 A2994 RMK AO2 SLP130 T02890128 10322 20289 53009
TAF
KATL 
36nm N 
152157Z 1522/1624 32013G22KT P6SM FEW080 FEW250 FM160200 34007KT P6SM SKC FM160800 34004KT P6SM SKC FM161400 34007KT P6SM SKC
KCSG 
41nm SW 
151742Z 1518/1618 34010G20KT P6SM FEW060 FEW250 FM160200 33006KT P6SM FEW250 FM160500 35004KT P6SM SKC FM161400 03006KT P6SM SKC
NOTAMs
Click for the latest NOTAMs
NOTAMs are issued by the DoD/FAA and will open in a separate window not controlled by AirNav.

 

 
 

Would you like to see your business listed on this page?

 If your business provides an interesting product or service to pilots, flight crews, aircraft, or users of the Windrift Aerodrome, you should consider listing it here.  To start the listing process, click on the button below
 
Add a business
 

Other Pages about Windrift Aerodrome

Update a link
 
Copyright © AirNav, LLC. All rights reserved. Privacy Policy  Contact